contact:dominique.lefevre@mio.osupytheas.fr, maurice.libes@osupytheas.fr, didier.mallarino@osupytheas.fr
Project:EMSO http://www.emso-fr.org/EMSO-France
Depth: 2436.0 m
Title:EMSO Ligure Ouest : Data MII capteur MICROCAT
DateTime_Computer,Latitude,Longitude,Temperature,Conductivity,Pressure,DateTime_Instrument
DateTime_Computer,Latitude,Longitude,degC,S m-1,dbar,DateTime_Instrument
2021-07-01T00:00:48Z,42.805,6.029,13.2999,4.60014,2470.45,2021-7-01T02:02:03Z
2021-07-01T00:03:51Z,42.805,6.029,13.2999,4.60028,2470.46,2021-7-01T02:05:06Z
2021-07-01T00:06:54Z,42.805,6.029,13.2998,4.60022,2470.497,2021-7-01T02:08:09Z
2021-07-01T00:09:57Z,42.805,6.029,13.2996,4.60016,2470.46,2021-7-01T02:11:12Z
2021-07-01T00:13:00Z,42.805,6.029,13.3000,4.60018,2470.497,2021-7-01T02:14:15Z
2021-07-01T00:16:04Z,42.805,6.029,13.3007,4.60015,2470.46,2021-7-01T02:17:18Z
2021-07-01T00:19:07Z,42.805,6.029,13.3001,4.60020,2470.46,2021-7-01T02:20:21Z
2021-07-01T00:22:10Z,42.805,6.029,13.2998,4.60021,2470.474,2021-7-01T02:23:25Z
2021-07-01T00:25:13Z,42.805,6.029,13.2998,4.60014,2470.474,2021-7-01T02:26:28Z
2021-07-01T00:28:16Z,42.805,6.029,13.2998,4.60017,2470.46,2021-7-01T02:29:31Z
2021-07-01T00:31:19Z,42.805,6.029,13.2995,4.60021,2470.483,2021-7-01T02:32:34Z
2021-07-01T00:34:22Z,42.805,6.029,13.3000,4.60016,2470.39,2021-7-01T02:35:37Z
2021-07-01T00:37:25Z,42.805,6.029,13.3000,4.60016,2470.483,2021-7-01T02:38:40Z
2021-07-01T00:40:29Z,42.805,6.029,13.2993,4.60015,2470.474,2021-7-01T02:41:43Z
2021-07-01T00:43:32Z,42.805,6.029,13.2998,4.60014,2470.474,2021-7-01T02:44:46Z
2021-07-01T00:46:35Z,42.805,6.029,13.3004,4.60024,2470.497,2021-7-01T02:47:50Z
2021-07-01T00:49:38Z,42.805,6.029,13.3005,4.60036,2470.46,2021-7-01T02:50:53Z
2021-07-01T00:52:41Z,42.805,6.029,13.2998,4.60023,2470.474,2021-7-01T02:53:56Z
2021-07-01T00:55:44Z,42.805,6.029,13.3006,4.60020,2470.45,2021-7-01T02:56:59Z
2021-07-01T00:58:47Z,42.805,6.029,13.3002,4.60029,2470.483,2021-7-01T03:00:02Z
2021-07-01T01:01:50Z,42.805,6.029,13.3004,4.60022,2470.46,2021-7-01T03:03:05Z
2021-07-01T01:04:54Z,42.805,6.029,13.3001,4.60013,2470.474,2021-7-01T03:06:08Z
2021-07-01T01:07:57Z,42.805,6.029,13.2998,4.60017,2470.45,2021-7-01T03:09:11Z
2021-07-01T01:11:00Z,42.805,6.029,13.3000,4.60021,2470.46,2021-7-01T03:12:15Z
2021-07-01T01:14:03Z,42.805,6.029,13.3000,4.60014,2470.474,2021-7-01T03:15:18Z
2021-07-01T01:17:06Z,42.805,6.029,13.2997,4.60014,2470.46,2021-7-01T03:18:21Z
2021-07-01T01:20:09Z,42.805,6.029,13.3006,4.60019,2470.474,2021-7-01T03:21:24Z
2021-07-01T01:23:12Z,42.805,6.029,13.3005,4.60029,2470.474,2021-7-01T03:24:27Z
2021-07-01T01:26:15Z,42.805,6.029,13.3000,4.60011,2470.474,2021-7-01T03:27:30Z
2021-07-01T01:29:18Z,42.805,6.029,13.2998,4.60019,2470.46,2021-7-01T03:30:33Z
2021-07-01T01:32:22Z,42.805,6.029,13.2998,4.60019,2470.46,2021-7-01T03:33:36Z
2021-07-01T01:35:25Z,42.805,6.029,13.3005,4.60017,2470.474,2021-7-01T03:36:39Z
2021-07-01T01:38:28Z,42.805,6.029,13.2995,4.60024,2470.46,2021-7-01T03:39:43Z
2021-07-01T01:41:31Z,42.805,6.029,13.2996,4.60013,2470.413,2021-7-01T03:42:46Z
2021-07-01T01:44:34Z,42.805,6.029,13.2997,4.60014,2470.446,2021-7-01T03:45:49Z
2021-07-01T01:47:37Z,42.805,6.029,13.2996,4.60011,2470.46,2021-7-01T03:48:52Z
2021-07-01T01:50:40Z,42.805,6.029,13.2997,4.60016,2470.474,2021-7-01T03:51:55Z
2021-07-01T01:53:43Z,42.805,6.029,13.2996,4.60029,2470.437,2021-7-01T03:54:58Z
2021-07-01T01:56:47Z,42.805,6.029,13.3001,4.60014,2470.413,2021-7-01T03:58:01Z
2021-07-01T01:59:50Z,42.805,6.029,13.3002,4.60019,2470.497,2021-7-01T04:01:04Z
2021-07-01T02:02:53Z,42.805,6.029,13.3002,4.60013,2470.427,2021-7-01T04:04:08Z
2021-07-01T02:05:56Z,42.805,6.029,13.3000,4.60014,2470.46,2021-7-01T04:07:11Z
2021-07-01T02:08:59Z,42.805,6.029,13.3003,4.60023,2470.45,2021-7-01T04:10:14Z
2021-07-01T02:12:02Z,42.805,6.029,13.2998,4.60021,2470.45,2021-7-01T04:13:17Z
2021-07-01T02:15:05Z,42.805,6.029,13.3002,4.60017,2470.437,2021-7-01T04:16:20Z
2021-07-01T02:18:08Z,42.805,6.029,13.2998,4.60017,2470.437,2021-7-01T04:19:23Z
2021-07-01T02:21:11Z,42.805,6.029,13.3009,4.60027,2470.427,2021-7-01T04:22:26Z
2021-07-01T02:24:15Z,42.805,6.029,13.2998,4.60021,2470.474,2021-7-01T04:25:29Z
2021-07-01T02:27:18Z,42.805,6.029,13.2998,4.60015,2470.437,2021-7-01T04:28:33Z
2021-07-01T02:30:21Z,42.805,6.029,13.3001,4.60016,2470.46,2021-7-01T04:31:36Z
2021-07-01T02:33:24Z,42.805,6.029,13.3005,4.60044,2470.45,2021-7-01T04:34:39Z
2021-07-01T02:36:27Z,42.805,6.029,13.2996,4.60013,2470.413,2021-7-01T04:37:42Z
2021-07-01T02:39:30Z,42.805,6.029,13.2998,4.60013,2470.413,2021-7-01T04:40:45Z
2021-07-01T02:42:33Z,42.805,6.029,13.2998,4.60014,2470.45,2021-7-01T04:43:48Z
2021-07-01T02:45:36Z,42.805,6.029,13.2999,4.60019,2470.404,2021-7-01T04:46:51Z
2021-07-01T02:48:40Z,42.805,6.029,13.3003,4.60032,2470.427,2021-7-01T04:49:54Z
2021-07-01T02:51:43Z,42.805,6.029,13.3000,4.60020,2470.399,2021-7-01T04:52:57Z
2021-07-01T02:54:46Z,42.805,6.029,13.2999,4.60017,2470.437,2021-7-01T04:56:01Z
2021-07-01T02:57:49Z,42.805,6.029,13.3000,4.60021,2470.366,2021-7-01T04:59:04Z
2021-07-01T03:00:52Z,42.805,6.029,13.3000,4.60027,2470.427,2021-7-01T05:02:07Z
2021-07-01T03:03:55Z,42.805,6.029,13.2998,4.60014,2470.427,2021-7-01T05:05:10Z
2021-07-01T03:06:58Z,42.805,6.029,13.3002,4.60020,2470.39,2021-7-01T05:08:13Z
2021-07-01T03:10:01Z,42.805,6.029,13.3004,4.60028,2470.427,2021-7-01T05:11:16Z
2021-07-01T03:13:04Z,42.805,6.029,13.3004,4.60021,2470.437,2021-7-01T05:14:19Z
2021-07-01T03:16:08Z,42.805,6.029,13.3004,4.60025,2470.404,2021-7-01T05:17:22Z
2021-07-01T03:19:11Z,42.805,6.029,13.3000,4.60016,2470.427,2021-7-01T05:20:26Z
2021-07-01T03:22:14Z,42.805,6.029,13.3006,4.60037,2470.413,2021-7-01T05:23:29Z
2021-07-01T03:25:17Z,42.805,6.029,13.2996,4.60021,2470.427,2021-7-01T05:26:32Z
2021-07-01T03:28:20Z,42.805,6.029,13.2999,4.60021,2470.366,2021-7-01T05:29:35Z
2021-07-01T03:31:23Z,42.805,6.029,13.3004,4.60016,2470.39,2021-7-01T05:32:38Z
2021-07-01T03:34:26Z,42.805,6.029,13.2996,4.60017,2470.39,2021-7-01T05:35:41Z
2021-07-01T03:37:29Z,42.805,6.029,13.3000,4.60014,2470.39,2021-7-01T05:38:44Z
2021-07-01T03:40:33Z,42.805,6.029,13.3001,4.60015,2470.39,2021-7-01T05:41:47Z
2021-07-01T03:43:36Z,42.805,6.029,13.3004,4.60016,2470.39,2021-7-01T05:44:50Z
2021-07-01T03:46:39Z,42.805,6.029,13.3001,4.60019,2470.366,2021-7-01T05:47:54Z
2021-07-01T03:49:42Z,42.805,6.029,13.2994,4.60014,2470.376,2021-7-01T05:50:57Z
2021-07-01T03:52:45Z,42.805,6.029,13.2998,4.60015,2470.39,2021-7-01T05:54:00Z
2021-07-01T03:55:48Z,42.805,6.029,13.3000,4.60017,2470.366,2021-7-01T05:57:03Z
2021-07-01T03:58:51Z,42.805,6.029,13.3001,4.60028,2470.39,2021-7-01T06:00:06Z
2021-07-01T04:01:54Z,42.805,6.029,13.3004,4.60032,2470.366,2021-7-01T06:03:09Z
2021-07-01T04:04:57Z,42.805,6.029,13.3001,4.60020,2470.33,2021-7-01T06:06:12Z
2021-07-01T04:08:01Z,42.805,6.029,13.3005,4.60034,2470.39,2021-7-01T06:09:15Z
2021-07-01T04:11:04Z,42.805,6.029,13.3008,4.60031,2470.413,2021-7-01T06:12:19Z
2021-07-01T04:14:07Z,42.805,6.029,13.3001,4.60035,2470.343,2021-7-01T06:15:22Z
2021-07-01T04:17:10Z,42.805,6.029,13.2998,4.60017,2470.39,2021-7-01T06:18:25Z
2021-07-01T04:20:13Z,42.805,6.029,13.3005,4.60020,2470.39,2021-7-01T06:21:28Z
2021-07-01T04:23:16Z,42.805,6.029,13.3003,4.60042,2470.343,2021-7-01T06:24:31Z
2021-07-01T04:26:19Z,42.805,6.029,13.3000,4.60029,2470.366,2021-7-01T06:27:34Z
2021-07-01T04:29:22Z,42.805,6.029,13.3006,4.60033,2470.38,2021-7-01T06:30:37Z
2021-07-01T04:32:26Z,42.805,6.029,13.2997,4.60029,2470.404,2021-7-01T06:33:40Z
2021-07-01T04:35:29Z,42.805,6.029,13.3014,4.60033,2470.366,2021-7-01T06:36:43Z
2021-07-01T04:38:32Z,42.805,6.029,13.3000,4.60029,2470.357,2021-7-01T06:39:47Z
2021-07-01T04:41:35Z,42.805,6.029,13.3003,4.60019,2470.38,2021-7-01T06:42:50Z
2021-07-01T04:44:38Z,42.805,6.029,13.3004,4.60029,2470.357,2021-7-01T06:45:53Z
2021-07-01T04:47:41Z,42.805,6.029,13.3006,4.60026,2470.32,2021-7-01T06:48:56Z
2021-07-01T04:50:44Z,42.805,6.029,13.3006,4.60032,2470.32,2021-7-01T06:51:59Z
2021-07-01T04:53:47Z,42.805,6.029,13.3011,4.60066,2470.357,2021-7-01T06:55:02Z
2021-07-01T04:56:51Z,42.805,6.029,13.3005,4.60030,2470.366,2021-7-01T06:58:05Z
2021-07-01T04:59:54Z,42.805,6.029,13.3004,4.60025,2470.343,2021-7-01T07:01:08Z
2021-07-01T05:02:57Z,42.805,6.029,13.3009,4.60043,2470.343,2021-7-01T07:04:12Z
2021-07-01T05:06:00Z,42.805,6.029,13.3000,4.60022,2470.32,2021-7-01T07:07:15Z
2021-07-01T05:09:03Z,42.805,6.029,13.3009,4.60035,2470.366,2021-7-01T07:10:18Z
2021-07-01T05:12:06Z,42.805,6.029,13.3004,4.60024,2470.357,2021-7-01T07:13:21Z
2021-07-01T05:15:09Z,42.805,6.029,13.3010,4.60026,2470.38,2021-7-01T07:16:24Z
2021-07-01T05:18:12Z,42.805,6.029,13.2998,4.60021,2470.32,2021-7-01T07:19:27Z
2021-07-01T05:21:15Z,42.805,6.029,13.3004,4.60020,2470.343,2021-7-01T07:22:30Z
2021-07-01T05:24:19Z,42.805,6.029,13.3007,4.60026,2470.357,2021-7-01T07:25:33Z
2021-07-01T05:27:22Z,42.805,6.029,13.3006,4.60027,2470.343,2021-7-01T07:28:36Z
2021-07-01T05:30:25Z,42.805,6.029,13.3002,4.60028,2470.32,2021-7-01T07:31:40Z
2021-07-01T05:33:28Z,42.805,6.029,13.3004,4.60023,2470.306,2021-7-01T07:34:43Z
2021-07-01T05:36:31Z,42.805,6.029,13.3004,4.60022,2470.357,2021-7-01T07:37:46Z
2021-07-01T05:39:34Z,42.805,6.029,13.3008,4.60044,2470.357,2021-7-01T07:40:49Z
2021-07-01T05:42:37Z,42.805,6.029,13.3002,4.60026,2470.357,2021-7-01T07:43:52Z
2021-07-01T05:45:40Z,42.805,6.029,13.3000,4.60019,2470.334,2021-7-01T07:46:55Z
2021-07-01T05:48:44Z,42.805,6.029,13.3004,4.60023,2470.334,2021-7-01T07:49:58Z
2021-07-01T05:51:47Z,42.805,6.029,13.3008,4.60047,2470.334,2021-7-01T07:53:01Z
2021-07-01T05:54:50Z,42.805,6.029,13.3009,4.60036,2470.343,2021-7-01T07:56:05Z
2021-07-01T05:57:53Z,42.805,6.029,13.3000,4.60029,2470.32,2021-7-01T07:59:08Z
2021-07-01T06:00:56Z,42.805,6.029,13.3001,4.60019,2470.31,2021-7-01T08:02:11Z
2021-07-01T06:03:59Z,42.805,6.029,13.3003,4.60042,2470.31,2021-7-01T08:05:14Z
2021-07-01T06:07:02Z,42.805,6.029,13.3006,4.60022,2470.357,2021-7-01T08:08:17Z
2021-07-01T06:10:05Z,42.805,6.029,13.3004,4.60029,2470.32,2021-7-01T08:11:20Z
2021-07-01T06:13:08Z,42.805,6.029,13.3004,4.60030,2470.31,2021-7-01T08:14:23Z
2021-07-01T06:16:12Z,42.805,6.029,13.3008,4.60027,2470.32,2021-7-01T08:17:26Z
2021-07-01T06:19:15Z,42.805,6.029,13.3004,4.60036,2470.343,2021-7-01T08:20:30Z
2021-07-01T06:22:18Z,42.805,6.029,13.3006,4.60024,2470.32,2021-7-01T08:23:33Z
2021-07-01T06:25:21Z,42.805,6.029,13.3004,4.60036,2470.357,2021-7-01T08:26:36Z
2021-07-01T06:28:24Z,42.805,6.029,13.3004,4.60025,2470.31,2021-7-01T08:29:39Z
2021-07-01T06:31:27Z,42.805,6.029,13.3004,4.60032,2470.357,2021-7-01T08:32:42Z
2021-07-01T06:34:30Z,42.805,6.029,13.3000,4.60027,2470.297,2021-7-01T08:35:45Z
2021-07-01T06:37:33Z,42.805,6.029,13.3004,4.60026,2470.32,2021-7-01T08:38:48Z
2021-07-01T06:40:37Z,42.805,6.029,13.3003,4.60021,2470.32,2021-7-01T08:41:51Z
2021-07-01T06:43:40Z,42.805,6.029,13.3001,4.60033,2470.32,2021-7-01T08:44:54Z
2021-07-01T06:46:43Z,42.805,6.029,13.3005,4.60031,2470.334,2021-7-01T08:47:58Z
2021-07-01T06:49:46Z,42.805,6.029,13.3007,4.60028,2470.343,2021-7-01T08:51:01Z
2021-07-01T06:52:49Z,42.805,6.029,13.2999,4.60016,2470.343,2021-7-01T08:54:04Z
2021-07-01T06:55:52Z,42.805,6.029,13.3003,4.60028,2470.297,2021-7-01T08:57:07Z
2021-07-01T06:58:55Z,42.805,6.029,13.3007,4.60044,2470.297,2021-7-01T09:00:10Z
2021-07-01T07:01:58Z,42.805,6.029,13.3003,4.60027,2470.297,2021-7-01T09:03:13Z
2021-07-01T07:05:01Z,42.805,6.029,13.3009,4.60046,2470.297,2021-7-01T09:06:16Z
2021-07-01T07:08:05Z,42.805,6.029,13.3003,4.60026,2470.334,2021-7-01T09:09:19Z
2021-07-01T07:11:08Z,42.805,6.029,13.3000,4.60019,2470.31,2021-7-01T09:12:22Z
2021-07-01T07:14:11Z,42.805,6.029,13.3008,4.60021,2470.32,2021-7-01T09:15:26Z
2021-07-01T07:17:14Z,42.805,6.029,13.3005,4.60016,2470.306,2021-7-01T09:18:29Z
2021-07-01T07:20:17Z,42.805,6.029,13.3006,4.60024,2470.297,2021-7-01T09:21:32Z
2021-07-01T07:23:20Z,42.805,6.029,13.3003,4.60024,2470.287,2021-7-01T09:24:35Z
2021-07-01T07:26:23Z,42.805,6.029,13.2998,4.60024,2470.31,2021-7-01T09:27:38Z
2021-07-01T07:29:26Z,42.805,6.029,13.3004,4.60031,2470.32,2021-7-01T09:30:41Z
2021-07-01T07:32:30Z,42.805,6.029,13.3010,4.60033,2470.32,2021-7-01T09:33:44Z
2021-07-01T07:35:33Z,42.805,6.029,13.3002,4.60027,2470.297,2021-7-01T09:36:47Z
2021-07-01T07:38:36Z,42.805,6.029,13.3003,4.60025,2470.334,2021-7-01T09:39:51Z
2021-07-01T07:41:39Z,42.805,6.029,13.3004,4.60035,2470.334,2021-7-01T09:42:54Z
2021-07-01T07:44:42Z,42.805,6.029,13.3000,4.60026,2470.334,2021-7-01T09:45:57Z
2021-07-01T07:47:45Z,42.805,6.029,13.3006,4.60022,2470.334,2021-7-01T09:49:00Z
2021-07-01T07:50:48Z,42.805,6.029,13.3004,4.60026,2470.273,2021-7-01T09:52:03Z
2021-07-01T07:53:51Z,42.805,6.029,13.3006,4.60025,2470.334,2021-7-01T09:55:06Z
2021-07-01T07:56:54Z,42.805,6.029,13.3001,4.60019,2470.31,2021-7-01T09:58:09Z
2021-07-01T07:59:58Z,42.805,6.029,13.3006,4.60033,2470.273,2021-7-01T10:01:12Z
2021-07-01T08:03:01Z,42.805,6.029,13.3009,4.60025,2470.273,2021-7-01T10:04:15Z
2021-07-01T08:06:04Z,42.805,6.029,13.3006,4.60044,2470.273,2021-7-01T10:07:19Z
2021-07-01T08:09:07Z,42.805,6.029,13.3001,4.60023,2470.334,2021-7-01T10:10:22Z
2021-07-01T08:12:10Z,42.805,6.029,13.3006,4.60047,2470.31,2021-7-01T10:13:25Z
2021-07-01T08:15:13Z,42.805,6.029,13.3011,4.60027,2470.297,2021-7-01T10:16:28Z
2021-07-01T08:18:16Z,42.805,6.029,13.3008,4.60023,2470.297,2021-7-01T10:19:31Z
2021-07-01T08:21:19Z,42.805,6.029,13.3008,4.60026,2470.31,2021-7-01T10:22:34Z
2021-07-01T08:24:23Z,42.805,6.029,13.3004,4.60024,2470.31,2021-7-01T10:25:37Z
2021-07-01T08:27:26Z,42.805,6.029,13.3007,4.60023,2470.273,2021-7-01T10:28:40Z
2021-07-01T08:30:29Z,42.805,6.029,13.3008,4.60020,2470.32,2021-7-01T10:31:44Z
2021-07-01T08:33:32Z,42.805,6.029,13.3007,4.60026,2470.334,2021-7-01T10:34:47Z
2021-07-01T08:36:35Z,42.805,6.029,13.3006,4.60029,2470.31,2021-7-01T10:37:50Z
2021-07-01T08:39:38Z,42.805,6.029,13.3010,4.60033,2470.273,2021-7-01T10:40:53Z
2021-07-01T08:42:41Z,42.805,6.029,13.3014,4.60042,2470.273,2021-7-01T10:43:56Z
2021-07-01T08:45:44Z,42.805,6.029,13.3006,4.60032,2470.334,2021-7-01T10:46:59Z
2021-07-01T08:48:48Z,42.805,6.029,13.3005,4.60029,2470.32,2021-7-01T10:50:02Z
2021-07-01T08:51:51Z,42.805,6.029,13.3005,4.60039,2470.357,2021-7-01T10:53:05Z
2021-07-01T08:54:54Z,42.805,6.029,13.3005,4.60034,2470.334,2021-7-01T10:56:09Z
2021-07-01T08:57:57Z,42.805,6.029,13.3009,4.60037,2470.32,2021-7-01T10:59:12Z
2021-07-01T09:01:00Z,42.805,6.029,13.3009,4.60040,2470.287,2021-7-01T11:02:15Z
2021-07-01T09:04:03Z,42.805,6.029,13.3013,4.60049,2470.32,2021-7-01T11:05:18Z
2021-07-01T09:07:06Z,42.805,6.029,13.3020,4.60047,2470.343,2021-7-01T11:08:21Z
2021-07-01T09:10:09Z,42.805,6.029,13.3007,4.60036,2470.32,2021-7-01T11:11:24Z
2021-07-01T09:13:13Z,42.805,6.029,13.3004,4.60029,2470.334,2021-7-01T11:14:27Z
2021-07-01T09:16:16Z,42.805,6.029,13.3010,4.60033,2470.32,2021-7-01T11:17:30Z
2021-07-01T09:19:19Z,42.805,6.029,13.3006,4.60029,2470.31,2021-7-01T11:20:34Z
2021-07-01T09:22:22Z,42.805,6.029,13.3012,4.60026,2470.334,2021-7-01T11:23:37Z
2021-07-01T09:25:25Z,42.805,6.029,13.3009,4.60025,2470.32,2021-7-01T11:26:40Z
2021-07-01T09:28:28Z,42.805,6.029,13.3011,4.60050,2470.357,2021-7-01T11:29:43Z
2021-07-01T09:31:31Z,42.805,6.029,13.3011,4.60029,2470.31,2021-7-01T11:32:46Z
2021-07-01T09:34:34Z,42.805,6.029,13.3004,4.60029,2470.334,2021-7-01T11:35:49Z
2021-07-01T09:37:38Z,42.805,6.029,13.3002,4.60019,2470.343,2021-7-01T11:38:52Z
2021-07-01T09:40:41Z,42.805,6.029,13.3005,4.60034,2470.357,2021-7-01T11:41:55Z
2021-07-01T09:43:44Z,42.805,6.029,13.3005,4.60031,2470.334,2021-7-01T11:44:59Z
2021-07-01T09:46:47Z,42.805,6.029,13.3017,4.60052,2470.38,2021-7-01T11:48:02Z
2021-07-01T09:49:50Z,42.805,6.029,13.3010,4.60027,2470.343,2021-7-01T11:51:05Z
2021-07-01T09:52:53Z,42.805,6.029,13.3008,4.60033,2470.357,2021-7-01T11:54:08Z
2021-07-01T09:55:56Z,42.805,6.029,13.3007,4.60046,2470.357,2021-7-01T11:57:11Z
2021-07-01T09:58:59Z,42.805,6.029,13.3006,4.60032,2470.343,2021-7-01T12:00:14Z
2021-07-01T10:02:02Z,42.805,6.029,13.3009,4.60031,2470.357,2021-7-01T12:03:17Z
2021-07-01T10:05:06Z,42.805,6.029,13.3006,4.60056,2470.357,2021-7-01T12:06:20Z
2021-07-01T10:08:09Z,42.805,6.029,13.3006,4.60022,2470.343,2021-7-01T12:09:24Z
2021-07-01T10:11:12Z,42.805,6.029,13.3011,4.60041,2470.32,2021-7-01T12:12:27Z
2021-07-01T10:14:15Z,42.805,6.029,13.3009,4.60036,2470.32,2021-7-01T12:15:30Z
2021-07-01T10:17:18Z,42.805,6.029,13.3012,4.60045,2470.343,2021-7-01T12:18:33Z
2021-07-01T10:20:21Z,42.805,6.029,13.3006,4.60030,2470.334,2021-7-01T12:21:36Z
2021-07-01T10:23:24Z,42.805,6.029,13.3011,4.60036,2470.38,2021-7-01T12:24:39Z
2021-07-01T10:26:27Z,42.805,6.029,13.3018,4.60039,2470.343,2021-7-01T12:27:42Z
2021-07-01T10:29:31Z,42.805,6.029,13.3011,4.60039,2470.357,2021-7-01T12:30:45Z
2021-07-01T10:32:34Z,42.805,6.029,13.3004,4.60026,2470.343,2021-7-01T12:33:49Z
2021-07-01T10:35:37Z,42.805,6.029,13.3005,4.60032,2470.357,2021-7-01T12:36:52Z
2021-07-01T10:38:40Z,42.805,6.029,13.3005,4.60026,2470.343,2021-7-01T12:39:55Z
2021-07-01T10:41:43Z,42.805,6.029,13.3003,4.60026,2470.343,2021-7-01T12:42:58Z
2021-07-01T10:44:46Z,42.805,6.029,13.3011,4.60026,2470.38,2021-7-01T12:46:01Z
2021-07-01T10:47:49Z,42.805,6.029,13.3005,4.60021,2470.38,2021-7-01T12:49:04Z
2021-07-01T10:50:52Z,42.805,6.029,13.3006,4.60024,2470.366,2021-7-01T12:52:07Z
2021-07-01T10:53:56Z,42.805,6.029,13.3004,4.60030,2470.343,2021-7-01T12:55:10Z
2021-07-01T10:56:59Z,42.805,6.029,13.3008,4.60033,2470.334,2021-7-01T12:58:14Z
2021-07-01T11:00:02Z,42.805,6.029,13.3005,4.60041,2470.357,2021-7-01T13:01:17Z
2021-07-01T11:03:05Z,42.805,6.029,13.3004,4.60024,2470.357,2021-7-01T13:04:20Z
2021-07-01T11:06:08Z,42.805,6.029,13.3015,4.60050,2470.38,2021-7-01T13:07:23Z
2021-07-01T11:09:11Z,42.805,6.029,13.3006,4.60031,2470.38,2021-7-01T13:10:26Z
2021-07-01T11:12:14Z,42.805,6.029,13.3014,4.60030,2470.357,2021-7-01T13:13:29Z
2021-07-01T11:15:17Z,42.805,6.029,13.3006,4.60026,2470.353,2021-7-01T13:16:32Z
2021-07-01T11:18:21Z,42.805,6.029,13.3011,4.60036,2470.366,2021-7-01T13:19:35Z
2021-07-01T11:21:24Z,42.805,6.029,13.3000,4.60025,2470.38,2021-7-01T13:22:38Z
2021-07-01T11:24:27Z,42.805,6.029,13.3008,4.60026,2470.357,2021-7-01T13:25:42Z
2021-07-01T11:27:30Z,42.805,6.029,13.3005,4.60029,2470.38,2021-7-01T13:28:45Z
2021-07-01T11:30:33Z,42.805,6.029,13.3007,4.60029,2470.366,2021-7-01T13:31:48Z
2021-07-01T11:33:36Z,42.805,6.029,13.3001,4.60024,2470.357,2021-7-01T13:34:51Z
2021-07-01T11:36:39Z,42.805,6.029,13.3019,4.60044,2470.297,2021-7-01T13:37:54Z
2021-07-01T11:39:42Z,42.805,6.029,13.3001,4.60024,2470.343,2021-7-01T13:40:57Z
2021-07-01T11:42:46Z,42.805,6.029,13.3003,4.60029,2470.343,2021-7-01T13:44:00Z
2021-07-01T11:45:49Z,42.805,6.029,13.3011,4.60048,2470.366,2021-7-01T13:47:03Z
2021-07-01T11:48:52Z,42.805,6.029,13.3005,4.60026,2470.38,2021-7-01T13:50:07Z
2021-07-01T11:51:55Z,42.805,6.029,13.3011,4.60021,2470.366,2021-7-01T13:53:10Z
2021-07-01T11:54:58Z,42.805,6.029,13.3005,4.60031,2470.366,2021-7-01T13:56:13Z
2021-07-01T11:58:01Z,42.805,6.029,13.3011,4.60044,2470.357,2021-7-01T13:59:16Z
2021-07-01T12:01:04Z,42.805,6.029,13.3015,4.60033,2470.343,2021-7-01T14:02:19Z
2021-07-01T12:04:07Z,42.805,6.029,13.3002,4.60046,2470.357,2021-7-01T14:05:22Z
2021-07-01T12:07:11Z,42.805,6.029,13.3008,4.60033,2470.357,2021-7-01T14:08:25Z
2021-07-01T12:10:14Z,42.805,6.029,13.3011,4.60032,2470.343,2021-7-01T14:11:28Z
2021-07-01T12:13:17Z,42.805,6.029,13.3006,4.60046,2470.343,2021-7-01T14:14:32Z
2021-07-01T12:16:20Z,42.805,6.029,13.3014,4.60047,2470.38,2021-7-01T14:17:35Z
2021-07-01T12:19:23Z,42.805,6.029,13.3015,4.60058,2470.38,2021-7-01T14:20:38Z
2021-07-01T12:22:26Z,42.805,6.029,13.3013,4.60033,2470.343,2021-7-01T14:23:41Z
2021-07-01T12:25:29Z,42.805,6.029,13.3009,4.60051,2470.366,2021-7-01T14:26:44Z
2021-07-01T12:28:32Z,42.805,6.029,13.3008,4.60047,2470.357,2021-7-01T14:29:47Z
2021-07-01T12:31:36Z,42.805,6.029,13.2998,4.60026,2470.38,2021-7-01T14:32:50Z
2021-07-01T12:34:39Z,42.805,6.029,13.3004,4.60022,2470.343,2021-7-01T14:35:53Z
2021-07-01T12:37:42Z,42.805,6.029,13.3004,4.60029,2470.357,2021-7-01T14:38:57Z
2021-07-01T12:40:45Z,42.805,6.029,13.3019,4.60026,2470.366,2021-7-01T14:42:00Z
2021-07-01T12:43:48Z,42.805,6.029,13.3011,4.60036,2470.357,2021-7-01T14:45:03Z
2021-07-01T12:46:51Z,42.805,6.029,13.3011,4.60033,2470.357,2021-7-01T14:48:06Z
2021-07-01T12:49:54Z,42.805,6.029,13.3006,4.60036,2470.357,2021-7-01T14:51:09Z
2021-07-01T12:52:57Z,42.805,6.029,13.3015,4.60047,2470.357,2021-7-01T14:54:12Z
2021-07-01T12:56:00Z,42.805,6.029,13.3011,4.60046,2470.334,2021-7-01T14:57:15Z
2021-07-01T12:59:04Z,42.805,6.029,13.3011,4.60029,2470.357,2021-7-01T15:00:18Z
2021-07-01T13:02:07Z,42.805,6.029,13.3005,4.60031,2470.334,2021-7-01T15:03:22Z
2021-07-01T13:05:10Z,42.805,6.029,13.3007,4.60022,2470.32,2021-7-01T15:06:25Z
2021-07-01T13:08:13Z,42.805,6.029,13.3008,4.60027,2470.366,2021-7-01T15:09:28Z
2021-07-01T13:11:16Z,42.805,6.029,13.3018,4.60030,2470.343,2021-7-01T15:12:31Z
2021-07-01T13:14:19Z,42.805,6.029,13.3005,4.60029,2470.343,2021-7-01T15:15:34Z
2021-07-01T13:17:22Z,42.805,6.029,13.3015,4.60036,2470.343,2021-7-01T15:18:37Z
2021-07-01T13:20:25Z,42.805,6.029,13.3013,4.60038,2470.357,2021-7-01T15:21:40Z
2021-07-01T13:23:29Z,42.805,6.029,13.3006,4.60039,2470.343,2021-7-01T15:24:43Z
2021-07-01T13:26:32Z,42.805,6.029,13.3006,4.60033,2470.306,2021-7-01T15:27:47Z
2021-07-01T13:29:35Z,42.805,6.029,13.3007,4.60031,2470.334,2021-7-01T15:30:50Z
2021-07-01T13:32:38Z,42.805,6.029,13.3003,4.60022,2470.343,2021-7-01T15:33:53Z
2021-07-01T13:35:41Z,42.805,6.029,13.3004,4.60022,2470.343,2021-7-01T15:36:56Z
2021-07-01T13:38:44Z,42.805,6.029,13.3009,4.60024,2470.343,2021-7-01T15:39:59Z
2021-07-01T13:41:47Z,42.805,6.029,13.3007,4.60024,2470.343,2021-7-01T15:43:02Z
2021-07-01T13:44:50Z,42.805,6.029,13.3004,4.60035,2470.32,2021-7-01T15:46:05Z
2021-07-01T13:47:54Z,42.805,6.029,13.3021,4.60054,2470.357,2021-7-01T15:49:08Z
2021-07-01T13:50:57Z,42.805,6.029,13.3025,4.60054,2470.38,2021-7-01T15:52:12Z
2021-07-01T13:54:00Z,42.805,6.029,13.3019,4.60058,2470.357,2021-7-01T15:55:15Z
2021-07-01T13:57:03Z,42.805,6.029,13.3010,4.60035,2470.366,2021-7-01T15:58:18Z
2021-07-01T14:00:06Z,42.805,6.029,13.3007,4.60035,2470.334,2021-7-01T16:01:21Z
2021-07-01T14:03:09Z,42.805,6.029,13.3006,4.60050,2470.297,2021-7-01T16:04:24Z
2021-07-01T14:06:12Z,42.805,6.029,13.3016,4.60040,2470.287,2021-7-01T16:07:27Z
2021-07-01T14:09:15Z,42.805,6.029,13.3013,4.60056,2470.334,2021-7-01T16:10:30Z
2021-07-01T14:12:19Z,42.805,6.029,13.3007,4.60048,2470.32,2021-7-01T16:13:33Z
2021-07-01T14:15:22Z,42.805,6.029,13.3000,4.60032,2470.343,2021-7-01T16:16:36Z
2021-07-01T14:18:25Z,42.805,6.029,13.3004,4.60050,2470.343,2021-7-01T16:19:40Z
2021-07-01T14:21:28Z,42.805,6.029,13.3013,4.60041,2470.32,2021-7-01T16:22:43Z
2021-07-01T14:24:31Z,42.805,6.029,13.3013,4.60039,2470.357,2021-7-01T16:25:46Z
2021-07-01T14:27:34Z,42.805,6.029,13.3010,4.60039,2470.32,2021-7-01T16:28:49Z
2021-07-01T14:30:37Z,42.805,6.029,13.3005,4.60036,2470.343,2021-7-01T16:31:52Z
2021-07-01T14:33:40Z,42.805,6.029,13.3014,4.60047,2470.32,2021-7-01T16:34:55Z
2021-07-01T14:36:44Z,42.805,6.029,13.3005,4.60041,2470.32,2021-7-01T16:37:58Z
2021-07-01T14:39:47Z,42.805,6.029,13.3030,4.60066,2470.334,2021-7-01T16:41:02Z
2021-07-01T14:42:50Z,42.805,6.029,13.3010,4.60049,2470.32,2021-7-01T16:44:05Z
2021-07-01T14:45:53Z,42.805,6.029,13.3021,4.60048,2470.32,2021-7-01T16:47:08Z
2021-07-01T14:48:56Z,42.805,6.029,13.3006,4.60049,2470.32,2021-7-01T16:50:11Z
2021-07-01T14:51:59Z,42.805,6.029,13.3023,4.60045,2470.357,2021-7-01T16:53:14Z
2021-07-01T14:55:02Z,42.805,6.029,13.3015,4.60050,2470.357,2021-7-01T16:56:17Z
2021-07-01T14:58:05Z,42.805,6.029,13.3016,4.60039,2470.32,2021-7-01T16:59:20Z
2021-07-01T15:01:08Z,42.805,6.029,13.3006,4.60041,2470.334,2021-7-01T17:02:23Z
2021-07-01T15:04:12Z,42.805,6.029,13.3015,4.60057,2470.334,2021-7-01T17:05:26Z
2021-07-01T15:07:15Z,42.805,6.029,13.3014,4.60054,2470.32,2021-7-01T17:08:30Z
2021-07-01T15:10:18Z,42.805,6.029,13.3013,4.60049,2470.32,2021-7-01T17:11:33Z
2021-07-01T15:13:21Z,42.805,6.029,13.3004,4.60029,2470.297,2021-7-01T17:14:36Z